Regional Weather Roundup
Issued by NWS Bismarck, ND

Home | Current Version | Previous Version | Text Only | Print | Product List | Glossary On
Versions: 1 2 3 4 5 6 7 8 9 10 11 12 13 14 15 16 17 18 19 20 21 22 23 24 25 26 27 28 29 30 31 32 33 34 35 36 37 38 39 40 41 42 43 44 45 46 47 48 49 50
000
ASUS43 KBIS 310359
RWRBIS

NWR BROADCAST TEXT
NATIONAL WEATHER SERVICE BISMARCK ND
1100 PM CDT THU OCT 30 2014

NOTE: "FAIR" INDICATES FEW OR NO CLOUDS BELOW 12,000 FEET WITH NO
SIGNIFICANT WEATHER AND/OR OBSTRUCTIONS TO VISIBILITY.


CITY           SKY/WX    TMP DP  RH WIND       PRES   REMARKS
WILLISTON      CLOUDY    32  25  75 SE14G22   30.51S
MINOT          CLEAR     20  16  84 SW7       30.55R WCI  11
MINOT AFB      NOT AVBL
BISMARCK       CLEAR     23  19  85 NE3       30.58R
DICKINSON      NOT AVBL
GARRISON         N/A     21  19  92 CALM      30.56R
HETTINGER ARPT CLOUDY    31  27  85 E12       30.50R
JAMESTOWN      NOT AVBL
BEACH            N/A     32  32 100 SE16G24   30.45F
CARRINGTON     FAIR      19  18  93 N3        30.58S
HARVEY         FAIR      19  19 100 NE6       30.57R WCI  11
HAZEN          FAIR      23  18  80 SE3       30.58R
MANDAN         FAIR      27  23  86 CALM      30.57R
OAKES            N/A     27  21  80 N10       30.55R WCI  17
$$

CITY           SKY/WX    TMP DP  RH WIND       PRES   REMARKS
GRAND FORKS    CLEAR     22  17  81 NW9       30.58R WCI  12
GRAND FORKS AF NOT AVBL
DEVILS LAKE    CLEAR     25  10  54 NE6       30.56S WCI  18
FARGO          CLEAR     28  19  69 N14       30.54R WCI  17
CANDO          FAIR      18  16  93 NW3       30.59R
CAVALIER       FAIR      25  16  68 N7        30.59S WCI  17
GRAFTON        FAIR      23  16  74 N8        30.59R WCI  14
GWINNER        CLEAR     28  19  69 N9        30.56R WCI  20
$$

CITY           SKY/WX    TMP DP  RH WIND       PRES   REMARKS
ABERDEEN       CLEAR     25  20  81 N9        30.55R WCI  15
MOBRIDGE       MOCLDY    27  22  81 N8        30.55R WCI  19
BUFFALO          N/A     34  28  79 E12       30.39S
RAPID CITY     CLOUDY    33  30  88 CALM      30.48R
GLASGOW        CLOUDY    35  29  78 SE23      30.37F
SIDNEY         CLOUDY    36  28  75 E13       30.48F
WOLF POINT     CLOUDY    38  31  76 SE10G20   30.43S
GLENDIVE       CLOUDY    36  30  80 SE14      30.44S
MILES CITY     CLEAR     31  28  89 NE7       30.37R
BAKER          CLOUDY    33  29  85 SE17G28   30.43R
$$

CITY           SKY/WX    TMP DP  RH WIND       PRES   REMARKS
BILLINGS       PTCLDY    42  32  67 N7        30.21F
GREAT FALLS    CLOUDY    45  33  63 S7        30.05F
$$




USA.gov is the U.S. government's official web portal to all federal, state and local government web resources and services.